Location: Bottens
(46.6171°N, 6.6605°E)
Time: 19:59:15
(UTC+00:00)

SL-4 R/B - Pass Details

Date: 20 June 2021
Orbit: 428 x 662 km, 51.6° (Epoch: 01 August)

Event Time Altitude Azimuth Distance (km) Brightness Sun altitude
Rises 01:20:11 0° 286° (WNW) 2,595 5.4 -16.0°
Reaches altitude 10° 01:22:33 10° 295° (WNW) 1,670 4.5 -15.8°
Maximum altitude 01:26:04 37° 4° (N) 743 3.3 -15.6°
Drops below altitude 10° 01:29:22 10° 73° (ENE) 1,574 5.0 -15.3°
Sets 01:31:32 0° 83° (E) 2,422 5.8 -15.1°
